Probability
0 0 0 0 0 0 0 0 0 0 0 0 0 0 0 0 0 0 0 0 0 0 0 3 3 3 0 0 0 0 0 0 0 0 0 0 0 0 0 0 0 0 0 0
0 0 0 0 0 0 0 0 0 0 0 0 0 0 0 0 0 0 0 0 0 0 0 3 0 3 0 0 0 0 0 0 0 0 0 0 0 0 0 0 0 0 0 0
0 0 0 0 0 0 0 0 0 0 0 0 0 0 0 0 0 0 0 0 0 0 0 0 0 0 0 0 0 0 0 0 0 0 0 0 0 0 0 0 0 0 0 0
0 0 0 0 0 0 0 0 0 0 0 0 0 0 0 0 0 0 0 0 0 0 0 0 0 0 0 0 0 0 0 0 0 0 0 0 0 0 0 0 0 0 0 0
0 0 0 0 0 0 0 0 0 0 0 0 0 0 0 0 0 0 0 0 0 0 0 0 0 0 0 0 0 0 0 0 0 0 0 0 0 0 0 0 0 0 0 0
0 0 0 0 0 0 0 0 0 0 0 0 0 0 0 0 0 0 0 0 0 0 0 0 0 0 0 0 0 0 0 0 0 0 0 0 0 0 0 0 0 0 0 0
0 0 0 0 0 0 0 0 0 0 0 0 0 0 0 0 0 0 0 0 0 0 0 0 0 0 0 0 0 0 0 0 0 0 0 0 0 0 0 0 0 0 0 0
0 0 0 0 0 0 0 0 0 0 0 0 0 0 0 0 0 0 0 0 0 0 0 0 0 0 0 0 0 0 0 0 0 0 0 0 0 0 0 0 0 0 0 0
0 0 0 0 0 0 0 0 0 0 0 0 0 0 0 0 0 0 0 0 0 0 0 0 0 0 0 0 0 0 0 0 0 0 0 0 0 0 0 0 0 0 0 0
0 0 0 0 0 0 0 0 0 0 0 0 0 0 0 0 0 0 0 0 0 0 0 0 0 0 0 0 0 0 0 0 0 0 0 0 0 0 0 0 0 0 0 0
0 0 0 0 0 0 0 0 0 0 0 0 0 0 0 0 0 0 0 0 0 0 0 0 0 0 0 0 0 0 0 0 0 0 0 0 0 0 0 0 0 0 0 0
0 0 0 0 0 0 0 0 0 0 0 0 0 0 0 0 0 0 0 0 0 0 0 0 0 0 0 0 0 0 0 0 0 0 0 0 0 0 0 0 0 0 0 0
0 0 0 0 0 0 0 0 0 0 0 0 0 0 0 0 0 0 0 0 0 0 0 0 0 0 0 0 0 0 0 0 0 0 0 0 0 0 0 0 0 0 0 0
0 0 0 0 0 0 0 0 0 0 0 0 0 0 0 0 0 0 0 0 0 0 0 0 0 0 0 0 0 0 0 0 0 0 0 0 0 0 0 0 0 0 0 0
0 0 0 0 0 0 0 0 0 0 0 0 0 0 0 0 0 0 0 0 0 0 0 0 0 0 0 0 0 0 0 0 0 0 0 0 0 0 0 0 0 0 0 0
0 0 0 0 0 0 0 0 0 0 0 0 0 0 0 0 0 0 0 0 0 0 0 0 0 0 0 0 0 0 0 0 0 0 0 0 0 0 0 0 0 0 0 0
0 0 0 0 0 0 0 0 0 0 0 0 0 0 0 0 0 0 0 0 0 0 0 0 0 0 0 0 0 0 0 0 0 0 0 0 0 0 0 0 0 0 0 0
0 0 0 0 0 0 0 0 0 0 0 0 0 0 0 0 0 0 0 0 0 0 0 0 0 0 0 0 0 0 0 0 0 0 0 0 0 0 0 0 0 0 0 0
0 0 0 0 0 0 0 0 0 0 0 0 0 0 0 0 0 0 0 0 0 0 0 0 0 0 0 0 0 0 0 0 0 0 0 0 0 0 0 0 0 0 0 0
0 0 0 0 0 0 0 0 0 0 0 0 0 0 0 0 0 0 0 0 0 0 0 0 0 0 0 0 0 0 0 0 0 0 0 0 0 0 0 0 0 0 0 0
0 0 0 0 0 0 0 0 0 0 0 0 0 0 0 0 0 0 0 0 0 0 0 0 0 0 0 0 0 0 0 0 0 0 0 0 0 0 0 0 0 0 0 0
0 0 0 0 0 0 0 0 0 0 0 0 0 0 0 0 0 0 0 0 0 0 0 0 0 0 0 0 0 0 0 0 0 0 0 0 0 0 0 0 0 0 0 0
0 0 0 0 0 0 0 0 0 0 0 0 0 0 0 0 0 0 0 0 0 0 0 0 0 0 0 0 0 0 0 0 0 0 0 0 0 0 0 0 0 0 0 0
0 0 0 0 0 0 0 0 0 0 0 0 0 0 0 0 0 0 0 0 0 0 0 0 0 0 0 0 0 0 0 0 0 0 0 0 0 0 0 0 0 0 0 0
0 0 0 0 0 0 0 0 0 0 0 0 0 0 0 0 0 0 0 0 0 0 0 0 0 0 0 0 0 0 0 0 0 0 0 0 0 0 0 0 0 0 0 0
0 0 0 0 0 0 0 0 0 0 0 0 0 0 0 0 0 0 0 0 0 0 0 0 0 0 0 0 0 0 0 0 0 0 0 0 0 0 0 0 0 0 0 0
Height
5682 5682 5681 5681 5681 5680 5680 5680 5680 5681 5681 5680 5681 5682 5683 5684 5685 5686 5688 5689 5691 5692 5694 5695 5697 5699 5701 5704 5706 5709 5712 5714 5717 5719 5722 5724 5726 5728 5730 5732 5734 5736 5738 5740
5677 5677 5676 5675 5675 5674 5673 5673 5673 5673 5673 5672 5673 5674 5675 5675 5676 5678 5679 5680 5681 5683 5685 5686 5688 5690 5692 5695 5697 5700 5702 5705 5708 5710 5712 5714 5716 5718 5721 5722 5724 5726 5728 5730
5671 5672 5670 5669 5669 5668 5667 5666 5666 5665 5665 5665 5664 5666 5667 5668 5667 5668 5670 5671 5672 5674 5676 5677 5679 5681 5683 5686 5688 5691 5693 5696 5698 5700 5702 5705 5707 5709 5711 5713 5714 5716 5718 5720
5665 5665 5664 5663 5662 5661 5661 5660 5659 5657 5657 5657 5657 5655 5660 5660 5660 5661 5661 5662 5664 5665 5666 5668 5670 5672 5674 5676 5678 5681 5683 5686 5688 5690 5692 5695 5697 5699 5701 5702 5704 5706 5707 5709
5660 5659 5658 5657 5656 5655 5654 5653 5652 5650 5649 5648 5648 5647 5650 5651 5652 5653 5654 5654 5655 5656 5657 5659 5660 5662 5664 5667 5669 5671 5673 5676 5678 5680 5683 5685 5687 5689 5691 5692 5694 5695 5697 5699
5653 5652 5651 5650 5649 5647 5646 5646 5644 5642 5641 5640 5641 5639 5640 5642 5643 5644 5644 5645 5646 5647 5648 5650 5651 5652 5654 5656 5658 5660 5663 5666 5668 5670 5672 5675 5677 5679 5681 5682 5684 5685 5687 5689
5646 5645 5644 5643 5642 5640 5639 5638 5636 5634 5632 5633 5633 5631 5633 5635 5635 5635 5635 5635 5636 5637 5638 5640 5641 5642 5644 5646 5648 5650 5652 5655 5657 5659 5662 5664 5666 5668 5670 5672 5673 5675 5677 5678
5639 5638 5637 5635 5634 5633 5631 5630 5629 5626 5625 5625 5624 5623 5626 5626 5625 5625 5626 5626 5627 5628 5628 5629 5631 5632 5634 5636 5638 5640 5642 5644 5646 5648 5651 5653 5655 5657 5659 5660 5662 5664 5666 5667
5631 5631 5630 5628 5627 5626 5624 5623 5621 5619 5616 5615 5615 5616 5617 5617 5616 5616 5616 5616 5617 5618 5619 5619 5620 5622 5623 5625 5627 5629 5631 5633 5635 5637 5639 5641 5644 5645 5647 5649 5650 5652 5654 5655
5624 5623 5623 5621 5619 5618 5617 5615 5613 5610 5608 5606 5606 5607 5608 5607 5607 5607 5607 5607 5607 5607 5608 5609 5610 5611 5612 5614 5616 5617 5619 5621 5623 5625 5627 5629 5631 5633 5635 5636 5638 5640 5641 5643
5617 5616 5615 5613 5612 5611 5609 5608 5605 5603 5601 5599 5596 5601 5600 5598 5597 5597 5597 5597 5597 5597 5597 5597 5598 5600 5601 5602 5604 5605 5607 5609 5611 5613 5615 5617 5618 5620 5622 5624 5625 5627 5628 5630
5610 5608 5606 5606 5605 5602 5601 5599 5597 5596 5594 5591 5589 5593 5591 5589 5587 5587 5587 5587 5587 5586 5586 5586 5587 5588 5589 5591 5592 5594 5595 5597 5598 5600 5602 5604 5605 5607 5608 5610 5612 5613 5615 5617
5602 5600 5598 5597 5598 5595 5593 5592 5589 5587 5585 5583 5581 5584 5582 5579 5578 5577 5577 5576 5576 5576 5576 5576 5576 5577 5578 5579 5580 5581 5583 5584 5586 5587 5589 5590 5592 5593 5595 5596 5598 5599 5601 5603
5593 5592 5591 5590 5587 5585 5584 5583 5580 5578 5575 5574 5573 5573 5572 5569 5568 5567 5566 5565 5565 5565 5564 5565 5565 5566 5566 5567 5568 5569 5570 5572 5573 5574 5576 5577 5578 5580 5581 5582 5584 5585 5587 5589
5584 5583 5582 5580 5578 5576 5575 5573 5571 5569 5567 5565 5565 5563 5562 5559 5557 5556 5555 5554 5554 5554 5553 5554 5554 5554 5555 5555 5556 5557 5558 5559 5560 5562 5563 5564 5565 5566 5567 5568 5570 5571 5573 5575
5575 5574 5573 5572 5570 5566 5565 5564 5562 5560 5558 5556 5554 5553 5552 5549 5547 5545 5544 5543 5543 5542 5542 5542 5543 5543 5543 5544 5545 5546 5546 5547 5548 5549 5550 5550 5551 5552 5553 5554 5555 5557 5559 5561
5565 5564 5562 5562 5560 5556 5556 5556 5553 5551 5549 5547 5544 5545 5542 5539 5537 5535 5534 5533 5532 5531 5531 5531 5531 5531 5532 5532 5533 5534 5534 5535 5535 5536 5536 5537 5538 5538 5539 5540 5542 5543 5545 5547
5556 5553 5551 5550 5549 5546 5550 5546 5543 5540 5539 5537 5535 5533 5531 5529 5528 5525 5523 5522 5521 5520 5520 5519 5519 5520 5520 5520 5521 5521 5522 5522 5522 5522 5522 5523 5524 5525 5525 5526 5528 5530 5531 5533
5546 5544 5541 5539 5536 5536 5538 5536 5533 5530 5529 5527 5524 5523 5521 5519 5517 5515 5513 5512 5511 5510 5509 5508 5508 5508 5508 5508 5509 5509 5509 5509 5509 5509 5509 5509 5510 5511 5512 5513 5514 5515 5517 5519
5536 5534 5532 5529 5525 5525 5528 5525 5521 5519 5518 5517 5514 5512 5510 5508 5506 5506 5503 5501 5500 5499 5498 5497 5497 5497 5497 5497 5497 5497 5497 5497 5496 5496 5496 5496 5497 5498 5498 5499 5500 5501 5503 5504
5526 5524 5521 5519 5515 5514 5516 5514 5511 5509 5509 5506 5503 5501 5499 5497 5495 5494 5492 5491 5490 5489 5488 5487 5486 5486 5485 5485 5485 5485 5484 5484 5484 5484 5483 5483 5484 5484 5485 5486 5487 5488 5489 5490
5516 5514 5511 5508 5505 5507 5505 5502 5501 5499 5496 5494 5491 5490 5488 5486 5483 5482 5481 5480 5479 5478 5477 5476 5475 5474 5474 5473 5473 5473 5473 5472 5472 5471 5471 5471 5471 5471 5472 5472 5473 5474 5475 5476
5506 5504 5501 5499 5499 5496 5493 5491 5489 5487 5485 5482 5480 5479 5477 5475 5473 5471 5470 5469 5468 5467 5466 5465 5464 5463 5462 5462 5461 5461 5461 5460 5459 5459 5458 5458 5458 5458 5459 5459 5460 5461 5461 5463
5495 5493 5490 5488 5487 5485 5482 5479 5477 5475 5473 5471 5469 5467 5465 5464 5462 5460 5459 5457 5457 5456 5455 5454 5453 5452 5451 5450 5449 5449 5449 5448 5447 5447 5446 5446 5446 5446 5446 5447 5447 5448 5449 5450
5484 5481 5478 5476 5476 5473 5471 5468 5466 5464 5462 5459 5457 5455 5453 5452 5450 5448 5447 5446 5445 5444 5443 5442 5441 5440 5439 5438 5437 5437 5437 5436 5435 5435 5435 5435 5434 5434 5434 5435 5435 5435 5436 5437
5473 5470 5468 5466 5464 5461 5459 5457 5454 5452 5450 5447 5445 5443 5441 5439 5438 5436 5435 5434 5433 5432 5431 5430 5429 5428 5427 5426 5426 5425 5425 5424 5423 5423 5423 5423 5422 5422 5422 5422 5423 5423 5423 5424
Wind_Speed
22 23 24 24 24 25 26 28 29 29 29 30 29 30 31 31 33 33 33 34 34 35 36 36 36 37 38 39 39 38 39 39 39 39 39 38 38 39 39 39 39 39 39 39
23 23 24 24 25 25 26 28 28 29 30 31 31 32 31 31 32 33 33 34 34 35 36 37 37 37 38 39 39 39 39 39 39 39 39 39 39 40 40 39 39 39 39 40
24 24 24 25 26 26 27 28 29 30 30 31 33 33 31 31 32 32 33 35 35 36 36 37 39 39 38 38 39 39 40 39 39 40 40 40 40 40 40 39 40 40 40 40
25 26 26 26 27 28 28 28 29 30 31 31 32 34 30 30 32 33 34 35 36 36 37 37 37 39 38 39 39 39 40 41 40 39 40 40 40 40 40 40 40 40 40 40
26 26 27 27 27 28 28 28 29 30 32 33 32 34 31 31 33 33 34 35 36 36 37 37 37 39 39 40 41 41 41 41 41 39 40 40 40 40 40 40 41 41 41 41
26 27 27 28 28 28 29 29 30 31 33 33 32 35 33 31 32 32 33 34 35 36 37 38 39 40 40 40 42 42 42 42 42 41 41 41 40 41 41 41 41 42 42 42
27 28 28 29 29 29 29 30 31 32 34 34 33 35 33 31 31 32 33 34 35 36 38 38 39 40 41 41 42 43 42 43 43 42 43 42 42 43 42 42 43 44 43 43
28 28 28 29 30 30 30 31 31 33 34 35 34 35 33 31 32 33 34 35 35 37 37 38 40 41 42 42 43 44 43 43 43 43 44 44 44 43 44 43 44 44 45 45
29 29 28 29 29 30 30 31 31 33 35 35 35 35 33 31 33 34 34 35 36 37 38 38 39 40 42 43 43 43 44 44 44 44 45 46 46 45 45 45 45 46 46 47
29 30 29 29 29 29 30 31 31 33 35 36 35 34 33 31 32 34 35 35 36 38 38 39 40 40 41 42 43 44 45 45 45 45 46 47 47 47 47 47 46 46 46 47
29 30 30 30 30 31 30 30 31 33 34 36 38 35 33 33 32 32 34 35 36 37 38 39 40 41 41 42 44 45 46 46 47 47 47 48 49 49 48 48 48 48 48 49
30 31 31 31 31 31 31 31 31 32 34 35 37 36 34 35 34 34 35 35 36 37 37 37 38 40 41 43 44 46 47 46 47 47 48 49 50 50 50 50 50 50 50 50
30 31 32 31 31 31 31 31 32 33 34 35 37 36 35 35 35 35 36 36 36 38 38 38 38 40 41 42 44 46 46 46 47 48 48 49 50 51 51 52 51 51 51 50
32 32 32 32 32 33 32 31 32 34 35 36 36 36 35 36 36 36 37 37 37 38 39 39 38 39 40 41 42 44 45 46 47 48 49 49 50 51 52 52 52 52 52 52
34 34 33 33 33 34 33 32 32 34 35 37 36 36 35 35 36 37 37 37 38 38 38 39 39 39 40 41 41 43 43 45 46 47 48 49 49 49 50 51 51 52 52 52
35 35 35 34 34 34 34 34 34 34 35 36 36 36 34 36 36 36 36 36 37 37 38 38 38 38 39 40 41 42 43 44 45 46 47 48 49 49 50 49 50 50 52 52
35 35 36 35 35 36 35 34 35 36 35 35 36 35 35 36 36 36 36 36 36 37 37 37 38 38 39 39 40 42 43 44 45 46 47 47 48 49 51 51 50 50 50 51
36 36 37 37 37 37 35 35 35 36 36 36 36 36 36 36 36 36 36 36 35 35 36 37 38 39 39 40 41 41 43 43 44 45 46 46 47 48 49 50 50 50 50 51
36 37 38 38 39 38 35 34 35 37 36 35 36 36 36 36 37 37 37 36 35 35 35 36 37 38 39 40 40 41 42 43 44 45 46 46 46 47 48 49 49 49 50 51
36 37 38 39 40 41 38 37 37 38 37 36 37 37 37 38 38 37 37 37 36 35 36 36 36 37 38 39 40 40 41 42 43 44 45 45 45 46 47 47 48 48 48 49
36 37 38 39 40 41 39 39 39 39 39 38 38 38 38 39 39 38 37 36 36 35 35 35 36 37 37 38 40 40 41 41 42 43 43 44 44 44 45 47 47 48 48 48
36 37 38 39 40 40 39 39 39 40 39 39 39 39 39 39 39 38 37 36 36 36 36 36 36 37 38 38 39 40 40 40 41 41 42 43 43 44 44 45 46 47 47 47
37 38 39 39 39 40 40 40 40 40 40 39 39 39 39 39 39 38 37 37 37 37 37 37 37 38 39 39 39 40 40 40 40 40 41 42 42 43 43 43 44 45 46 46
36 37 38 39 39 39 40 41 42 42 41 40 40 40 40 40 40 39 38 37 38 38 39 39 39 39 39 39 39 40 40 40 39 39 39 40 41 42 42 43 43 44 45 45
38 38 39 40 39 40 40 41 41 41 41 41 41 41 41 40 40 39 39 39 39 39 40 40 40 39 39 39 40 40 41 40 40 39 39 39 40 40 41 43 43 44 44 44
37 39 39 40 40 41 40 40 40 41 41 42 42 42 41 41 40 39 39 39 40 40 40 40 40 40 40 40 40 40 40 40 40 40 39 40 39 40 40 41 42 42 43 43
Wind_Direction
280 277 276 276 275 275 275 274 273 270 269 268 265 264 264 263 260 259 259 258 257 257 255 254 253 251 249 247 246 247 248 248 248 248 249 249 250 251 252 253 254 253 253 252
280 278 279 277 275 275 277 276 275 273 271 270 266 264 264 263 262 261 259 258 257 258 256 253 252 251 250 248 247 246 248 248 249 249 249 249 251 252 252 254 255 254 253 252
280 281 281 278 276 275 277 278 277 275 272 271 269 265 265 262 262 261 259 259 258 258 256 254 252 252 250 249 248 248 249 248 249 249 249 250 251 253 254 254 255 254 253 253
281 282 280 278 277 278 277 279 278 276 274 272 269 268 265 262 261 262 261 261 260 260 258 255 253 252 251 250 250 249 249 249 250 250 250 251 252 253 254 253 253 253 253 255
283 283 282 281 281 281 281 281 278 276 275 274 271 271 269 265 264 264 264 263 261 260 259 257 255 253 251 250 250 250 250 250 250 250 251 251 252 253 254 254 255 255 255 255
284 283 283 282 283 282 282 282 280 277 277 276 274 274 272 269 266 266 266 265 263 260 258 257 257 255 252 251 249 250 250 249 250 250 252 252 252 254 255 255 255 255 255 255
287 285 284 284 283 282 283 283 283 281 279 278 277 275 275 273 268 266 266 266 264 261 260 259 258 256 253 253 251 251 250 249 251 251 252 252 252 252 254 256 255 255 256 257
289 287 287 285 283 283 283 283 282 282 283 284 280 278 278 275 270 269 268 267 265 262 261 260 259 257 255 253 252 252 251 251 252 252 253 252 252 253 254 256 256 256 256 257
289 289 289 288 286 284 284 283 283 282 282 284 283 280 279 276 272 270 268 267 266 264 262 260 259 258 256 254 252 252 252 252 253 254 253 252 253 255 255 256 256 255 256 257
289 290 288 288 286 284 285 284 283 282 282 283 285 283 282 279 275 270 268 267 266 266 263 260 260 259 257 255 254 254 253 253 254 254 254 254 254 255 257 257 257 256 256 258
289 290 290 289 287 286 284 282 282 282 281 281 284 284 282 281 277 272 270 269 268 266 265 263 262 261 259 257 255 255 255 256 254 254 254 254 254 256 257 258 257 257 256 256
289 289 290 290 290 288 285 282 282 281 281 280 282 285 283 281 279 274 272 271 268 266 266 266 264 262 261 259 257 256 257 257 256 255 255 255 255 256 257 258 258 257 257 257
290 289 290 290 290 288 285 284 283 281 280 280 282 285 284 281 279 277 274 272 270 267 266 266 265 263 262 262 260 258 258 258 258 258 258 257 257 257 258 258 259 259 258 258
288 288 289 289 289 289 288 285 283 281 281 282 283 284 283 282 280 278 275 274 272 269 267 266 265 264 264 263 262 259 259 259 259 260 259 258 258 258 258 259 259 259 258 258
287 287 288 288 288 287 288 286 284 283 283 284 285 283 284 282 281 278 276 274 271 269 267 265 265 266 265 264 262 260 260 260 259 260 261 260 260 259 260 260 258 257 258 259
287 286 287 286 286 287 287 287 286 285 284 284 284 283 284 282 280 279 277 276 274 270 267 265 264 265 265 264 263 262 261 260 260 261 261 261 261 260 260 260 258 257 258 259
287 287 286 286 286 286 286 289 288 286 285 285 284 285 283 282 281 280 279 277 277 273 269 267 266 265 265 265 264 262 262 262 262 262 262 262 262 261 260 260 260 259 259 259
286 286 286 286 286 286 288 289 289 287 284 284 284 284 283 283 282 281 279 278 276 275 272 269 268 266 265 265 265 265 264 264 263 264 265 264 263 263 262 262 261 260 259 259
286 286 286 286 286 287 287 289 289 288 284 284 284 283 283 283 281 281 280 278 277 275 275 272 270 268 266 265 266 266 265 265 265 267 266 265 264 263 263 262 262 261 260 260
287 286 285 286 286 287 288 289 289 288 285 284 284 284 284 284 282 280 279 277 276 275 276 274 270 269 267 267 267 268 268 267 267 267 266 265 265 264 263 262 262 261 261 261
287 287 286 286 286 287 288 289 289 288 287 285 284 284 285 284 283 281 279 277 276 276 276 274 272 270 268 268 268 268 268 269 270 268 267 266 266 265 264 264 263 263 262 262
288 288 287 286 286 286 287 287 287 287 286 285 284 284 284 284 283 281 279 277 276 276 275 274 273 273 271 269 269 269 269 270 270 270 269 267 267 266 265 265 264 263 262 261
286 286 286 286 286 286 285 285 286 285 285 284 283 283 284 283 282 281 278 276 275 274 274 274 274 274 273 271 269 269 270 271 271 270 269 268 267 266 265 265 264 264 263 261
286 286 285 285 285 285 285 285 284 283 283 282 282 282 283 283 281 279 277 276 275 274 274 274 274 274 273 271 270 270 271 271 271 271 270 268 267 266 266 265 265 264 264 262
286 286 285 285 285 285 285 284 283 282 283 282 281 282 283 283 281 279 277 276 275 275 275 274 274 273 272 271 271 271 271 271 271 271 269 268 267 267 266 266 265 264 264 263
286 286 286 285 285 285 284 284 282 282 282 282 281 281 281 281 280 279 278 277 276 276 275 274 274 273 272 271 271 270 270 271 271 270 269 268 268 267 267 266 265 264 264 264